KUIPER-00074

导读

KUIPER-00074是美国亚马逊柯伊伯项目(Amazon Leo)旗下的低轨卫星互联网卫星,于2025年7月16日发射入轨。该卫星运行于约640公里近地轨道,支持Ka等多频段通信,是亚马逊7700颗卫星星座部署中的一员,旨在面向全球航空、海事及偏远地区提供高速卫星互联网服务,直接对标SpaceX星链,依托AWS云服务聚焦企业级市场竞争,助力亚马逊全球卫星互联网组网进程。

基本信息
目录编号:
64821
目录名称:
KUIPER-00074
国际标识:
2025-151F
轨道中心:
EARTH
卫星名称:
KUIPER-00074
卫星全名:
KUIPER-00074
卫星状态:
在轨 (已飞行331 天)
发射日期:
2025-07-16 UTC
国别 :
美国 (US)
星等 :
--
轨道信息
数据来源 国际轨道数据
星历时间: 2026-06-12T15:08:13+0800
13小时前
查看轨道信息
半长轴: 6691.282km
偏心率: 0.0008708
轨道倾角: 51.884°
近地点辐角 15.894°
升交点赤经 170.487°
平近点角 344.234°
近地点: 307.318km
远地点: 318.972km
周期: 90.787分钟
每日圈数: 15.861302
详细信息
使用方式:
暂无
2D轨道图
3D轨道图
轨道高度分析图
轨道倾角分析图
轨道综合分析图
查看轨道综合分析图